Location: Chaumontel
(49.1247°N, 2.4324°E)
Time: 06:00:19
(UTC+00:00)

COSMOS 2428 - Pass Details

Date: 07 August 2024
Orbit: 842 x 857 km, 70.9° (Epoch: 08 September)

Event Time Altitude Azimuth Distance (km) Brightness Sun altitude
Exits shadow 01:05:56 10° 127° (SE) 2,475 4.9 -22.7°
Reaches altitude 10° 01:05:59 10° 127° (SE) 2,466 4.9 -22.7°
Maximum altitude 01:08:49 14° 97° (E) 2,187 5.0 -22.6°
Drops below altitude 10° 01:11:40 10° 66° (ENE) 2,480 5.7 -22.4°
Sets 01:15:18 0° 43° (NE) 3,425 7.0 -22.2°
